TimePDT,TemperatureF,Dew PointF,Humidity,Sea Level PressureIn,VisibilityMPH,Wind Direction,Wind SpeedMPH,Gust SpeedMPH,PrecipitationIn,Events,Conditions,WindDirDegrees,DateUTC
12:15 AM,37.4,28.4,70,30.06,10.0,SW,8.1,-,N/A,,Scattered Clouds,230,2013-03-21 07:15:00
12:35 AM,37.4,28.4,70,30.06,10.0,SW,9.2,-,N/A,,Mostly Cloudy,220,2013-03-21 07:35:00
12:55 AM,37.4,28.4,70,30.06,10.0,WSW,6.9,-,N/A,,Mostly Cloudy,240,2013-03-21 07:55:00
1:15 AM,35.6,28.4,75,30.05,10.0,SSW,5.8,-,N/A,,Mostly Cloudy,200,2013-03-21 08:15:00
1:35 AM,35.6,30.2,81,30.05,10.0,WSW,13.8,19.6,N/A,,Overcast,250,2013-03-21 08:35:00
1:55 AM,35.6,28.4,75,30.06,10.0,West,6.9,-,N/A,,Scattered Clouds,260,2013-03-21 08:55:00
2:15 AM,32.0,28.4,87,30.06,10.0,Calm,Calm,-,N/A,,Scattered Clouds,0,2013-03-21 09:15:00
2:35 AM,35.6,28.4,75,30.07,10.0,SE,3.5,-,N/A,,Scattered Clouds,130,2013-03-21 09:35:00
2:55 AM,35.6,28.4,75,30.07,10.0,Calm,Calm,-,N/A,,Partly Cloudy,0,2013-03-21 09:55:00
3:15 AM,33.8,26.6,75,30.07,10.0,East,3.5,-,N/A,,Clear,80,2013-03-21 10:15:00
3:35 AM,32.0,26.6,80,30.07,10.0,Calm,Calm,-,N/A,,Partly Cloudy,0,2013-03-21 10:35:00
3:55 AM,32.0,26.6,80,30.07,10.0,SE,3.5,-,N/A,,Partly Cloudy,140,2013-03-21 10:55:00
4:15 AM,28.4,26.6,93,30.07,10.0,Calm,Calm,-,N/A,,Partly Cloudy,0,2013-03-21 11:15:00
4:35 AM,28.4,24.8,86,30.07,10.0,West,3.5,-,N/A,,Clear,260,2013-03-21 11:35:00
4:55 AM,30.2,24.8,80,30.07,10.0,SE,4.6,-,N/A,,Clear,130,2013-03-21 11:55:00
5:15 AM,26.6,24.8,93,30.07,10.0,SW,3.5,-,N/A,,Clear,220,2013-03-21 12:15:00
5:35 AM,28.4,24.8,86,30.07,10.0,East,3.5,-,N/A,,Clear,80,2013-03-21 12:35:00
5:55 AM,24.8,23.0,93,30.08,10.0,SW,3.5,-,N/A,,Clear,230,2013-03-21 12:55:00
6:15 AM,26.6,24.8,93,30.07,10.0,SE,5.8,-,N/A,,Clear,140,2013-03-21 13:15:00
6:35 AM,26.6,24.8,93,30.07,10.0,Calm,Calm,-,N/A,,Clear,0,2013-03-21 13:35:00
6:50 AM,24.8,23.0,93,30.08,10.0,Calm,Calm,-,N/A,,Clear,0,2013-03-21 13:50:00
7:50 AM,26.6,24.8,93,30.07,10.0,Calm,Calm,-,N/A,,Clear,0,2013-03-21 14:50:00
8:50 AM,32.0,26.6,80,30.09,10.0,NNE,4.6,-,N/A,,Clear,20,2013-03-21 15:50:00
9:55 AM,37.4,24.8,60,30.09,10.0,Calm,Calm,-,N/A,,Clear,0,2013-03-21 16:55:00
10:50 AM,41.0,14.0,33,30.08,10.0,Calm,Calm,-,N/A,,Clear,0,2013-03-21 17:50:00
11:55 AM,44.6,14.0,29,30.06,10.0,Calm,Calm,-,N/A,,Clear,0,2013-03-21 18:55:00
12:50 PM,46.4,17.6,32,30.06,10.0,WNW,9.2,-,N/A,,Partly Cloudy,290,2013-03-21 19:50:00
1:55 PM,48.2,21.2,34,30.04,10.0,West,15.0,-,N/A,,Scattered Clouds,270,2013-03-21 20:55:00
2:55 PM,48.2,24.8,40,30.02,10.0,West,8.1,-,N/A,,Scattered Clouds,270,2013-03-21 21:55:00
3:55 PM,48.2,24.8,40,30.02,10.0,West,11.5,16.1,N/A,,Scattered Clouds,280,2013-03-21 22:55:00
4:55 PM,48.2,24.8,40,30.01,10.0,WNW,9.2,-,N/A,,Scattered Clouds,300,2013-03-21 23:55:00
5:55 PM,46.4,28.4,50,30.01,10.0,WNW,12.7,-,N/A,,Clear,300,2013-03-22 00:55:00
6:15 PM,46.4,28.4,50,30.01,10.0,West,12.7,-,N/A,,Clear,270,2013-03-22 01:15:00
6:35 PM,44.6,28.4,53,30.01,10.0,West,11.5,-,N/A,,Clear,280,2013-03-22 01:35:00
6:55 PM,44.6,30.2,57,30.01,10.0,West,10.4,-,N/A,,Partly Cloudy,280,2013-03-22 01:55:00
7:15 PM,42.8,32.0,66,30.02,10.0,NW,8.1,-,N/A,,Scattered Clouds,310,2013-03-22 02:15:00
7:35 PM,41.0,32.0,70,30.03,10.0,WNW,9.2,-,N/A,,Partly Cloudy,300,2013-03-22 02:35:00
7:55 PM,41.0,32.0,70,30.04,10.0,WNW,5.8,-,N/A,,Mostly Cloudy,300,2013-03-22 02:55:00
8:15 PM,39.2,28.4,65,30.04,10.0,North,5.8,-,N/A,,Overcast,350,2013-03-22 03:15:00
8:35 PM,39.2,24.8,56,30.05,10.0,North,5.8,-,N/A,,Mostly Cloudy,10,2013-03-22 03:35:00
8:55 PM,37.4,24.8,60,30.06,10.0,NNE,4.6,-,N/A,,Clear,20,2013-03-22 03:55:00
9:15 PM,37.4,19.4,48,30.05,10.0,ESE,3.5,-,N/A,,Clear,110,2013-03-22 04:15:00
9:35 PM,33.8,23.0,65,30.06,10.0,Calm,Calm,-,N/A,,Clear,0,2013-03-22 04:35:00
9:55 PM,28.4,26.6,93,30.06,10.0,Calm,Calm,-,N/A,,Clear,0,2013-03-22 04:55:00
10:15 PM,32.0,24.8,75,30.08,10.0,NNW,4.6,-,N/A,,Clear,340,2013-03-22 05:15:00
10:35 PM,28.4,24.8,86,30.09,10.0,Calm,Calm,-,N/A,,Clear,0,2013-03-22 05:35:00
10:55 PM,28.4,26.6,93,30.10,10.0,Calm,Calm,-,N/A,,Clear,0,2013-03-22 05:55:00
11:15 PM,26.6,23.0,86,30.10,10.0,SSW,3.5,-,N/A,,Clear,200,2013-03-22 06:15:00
11:35 PM,26.6,24.8,93,30.09,10.0,Calm,Calm,-,N/A,,Clear,0,2013-03-22 06:35:00
11:55 PM,24.8,23.0,93,30.10,10.0,Calm,Calm,-,N/A,,Clear,0,2013-03-22 06:55:00